| time (UTC) | temp F | wind direction | speed MPH | gust MPH | rain 1hr in | rain 24hr in | rain mn in | humidity % | barometer mb |
| 20260510174024 | 87 | 192 | 1.0 | 4.0 | 0.00 | 0.19 | 0.00 | 72 | 1015.9 |
| 20260510173523 | 86 | 303 | 0.0 | 8.0 | 0.00 | 0.19 | 0.00 | 74 | 1016.0 |
| 20260510173022 | 86 | 265 | 3.0 | 8.0 | 0.00 | 0.19 | 0.00 | 74 | 1016.1 |
| 20260510172521 | 85 | 242 | 2.0 | 8.0 | 0.00 | 0.19 | 0.00 | 76 | 1016.2 |
| 20260510172022 | 85 | 200 | 3.0 | 5.0 | 0.00 | 0.19 | 0.00 | 74 | 1016.2 |
| 20260510171519 | 85 | 304 | 0.0 | 6.0 | 0.00 | 0.19 | 0.00 | 75 | 1016.3 |
| 20260510171018 | 84 | 290 | 2.0 | 6.0 | 0.00 | 0.19 | 0.00 | 75 | 1016.3 |
| 20260510170520 | 84 | 269 | 1.0 | 3.0 | 0.00 | 0.19 | 0.00 | 77 | 1016.3 |
| 20260510170015 | 83 | 201 | 0.0 | 4.0 | 0.00 | 0.19 | 0.00 | 78 | 1016.4 |
| 20260510165514 | 83 | 200 | 2.0 | 5.0 | 0.00 | 0.19 | 0.00 | 80 | 1016.6 |
| 20260510165012 | 82 | 183 | 1.0 | 5.0 | 0.00 | 0.19 | 0.00 | 81 | 1016.7 |
| 20260510164517 | 81 | 242 | 1.0 | 5.0 | 0.00 | 0.19 | 0.00 | 82 | 1016.8 |
| 20260510164010 | 81 | 205 | 0.0 | 3.0 | 0.00 | 0.19 | 0.00 | 83 | 1016.8 |
| 20260510163509 | 81 | 198 | 2.0 | 3.0 | 0.00 | 0.19 | 0.00 | 83 | 1016.9 |
| 20260510163012 | 80 | 306 | 0.0 | 1.0 | 0.00 | 0.19 | 0.00 | 85 | 1016.8 |
| 20260510162506 | 80 | 188 | 0.0 | 4.0 | 0.00 | 0.19 | 0.00 | 85 | 1016.9 |
| 20260510162005 | 79 | 186 | 0.0 | 4.0 | 0.00 | 0.19 | 0.00 | 86 | 1017.0 |
| 20260510161506 | 79 | 284 | 0.0 | 3.0 | 0.00 | 0.19 | 0.00 | 86 | 1017.1 |
| 20260510161003 | 78 | 270 | 1.0 | 3.0 | 0.00 | 0.19 | 0.00 | 86 | 1017.2 |
| 20260510160502 | 78 | 209 | 0.0 | 0.0 | 0.00 | 0.19 | 0.00 | 87 | 1017.3 |
| 20260510160005 | 78 | 209 | 0.0 | 3.0 | 0.00 | 0.19 | 0.00 | 87 | 1017.3 |
| 20260510155600 | 77 | 208 | 0.0 | 3.0 | 0.00 | 0.19 | 0.00 | 87 | 1017.3 |
| 20260510155100 | 77 | 188 | 0.0 | 0.0 | 0.00 | 0.19 | 0.00 | 88 | 1017.3 |
| 20260510154607 | 77 | 188 | 0.0 | 0.0 | 0.00 | 0.19 | 0.00 | 88 | 1017.1 |
| 20260510154057 | 77 | 188 | 0.0 | 0.0 | 0.00 | 0.19 | 0.00 | 88 | 1017.2 |
| 20260510153555 | 77 | 188 | 0.0 | 0.0 | 0.00 | 0.19 | 0.00 | 88 | 1017.2 |
| 20260510153055 | 76 | 360 | 0.0 | 0.0 | 0.00 | 0.19 | 0.00 | 89 | 1017.2 |
| 20260510152554 | 76 | 360 | 0.0 | 0.0 | 0.00 | 0.19 | 0.00 | 89 | 1017.1 |
| 20260510152054 | 76 | 360 | 0.0 | 0.0 | 0.00 | 0.19 | 0.00 | 90 | 1017.1 |
| 20260510151553 | 76 | 360 | 0.0 | 0.0 | 0.00 | 0.19 | 0.00 | 90 | 1017.0 |
| 20260510151051 | 76 | 360 | 0.0 | 0.0 | 0.00 | 0.19 | 0.00 | 90 | 1017.0 |
| 20260510150550 | 76 | 360 | 0.0 | 0.0 | 0.00 | 0.19 | 0.00 | 90 | 1017.1 |
| 20260510150052 | 75 | 178 | 0.0 | 0.0 | 0.00 | 0.19 | 0.00 | 91 | 1017.1 |
| 20260510145548 | 75 | 360 | 0.0 | 0.0 | 0.00 | 0.19 | 0.00 | 92 | 1017.1 |
| 20260510145047 | 75 | 360 | 0.0 | 0.0 | 0.00 | 0.19 | 0.00 | 92 | 1017.2 |
| 20260510144558 | 75 | 360 | 0.0 | 0.0 | 0.00 | 0.19 | 0.00 | 93 | 1017.2 |
| 20260510144044 | 74 | 360 | 0.0 | 0.0 | 0.00 | 0.19 | 0.00 | 93 | 1017.0 |
| 20260510143543 | 74 | 360 | 0.0 | 0.0 | 0.00 | 0.19 | 0.00 | 94 | 1016.9 |
| 20260510143044 | 74 | 360 | 0.0 | 0.0 | 0.00 | 0.19 | 0.00 | 94 | 1017.0 |
| 20260510142540 | 74 | 360 | 0.0 | 0.0 | 0.00 | 0.19 | 0.00 | 94 | 1016.9 |
| 20260510142039 | 73 | 360 | 0.0 | 0.0 | 0.00 | 0.19 | 0.00 | 94 | 1017.0 |
| 20260510141538 | 73 | 360 | 0.0 | 0.0 | 0.00 | 0.19 | 0.00 | 94 | 1017.0 |
| 20260510141036 | 73 | 360 | 0.0 | 0.0 | 0.00 | 0.19 | 0.00 | 94 | 1016.9 |
| 20260510140536 | 73 | 360 | 0.0 | 0.0 | 0.00 | 0.19 | 0.00 | 94 | 1016.8 |
| 20260510140037 | 73 | 360 | 0.0 | 0.0 | 0.00 | 0.19 | 0.00 | 94 | 1016.8 |
| 20260510135532 | 73 | 360 | 0.0 | 0.0 | 0.00 | 0.19 | 0.00 | 95 | 1016.7 |
| 20260510135031 | 73 | 360 | 0.0 | 0.0 | 0.00 | 0.19 | 0.00 | 94 | 1016.7 |
| 20260510134531 | 73 | 360 | 0.0 | 0.0 | 0.00 | 0.19 | 0.00 | 94 | 1016.8 |
| 20260510134028 | 73 | 178 | 0.0 | 0.0 | 0.00 | 0.19 | 0.00 | 94 | 1016.8 |
| 20260510133531 | 73 | 178 | 0.0 | 0.0 | 0.00 | 0.19 | 0.00 | 94 | 1016.8 |
| 20260510133029 | 73 | 178 | 0.0 | 0.0 | 0.00 | 0.19 | 0.00 | 95 | 1016.8 |
| 20260510132527 | 73 | 178 | 0.0 | 0.0 | 0.00 | 0.19 | 0.00 | 95 | 1016.7 |
| 20260510132027 | 72 | 178 | 0.0 | 0.0 | 0.00 | 0.19 | 0.00 | 95 | 1016.8 |
| 20260510131533 | 72 | 178 | 0.0 | 0.0 | 0.00 | 0.19 | 0.00 | 95 | 1016.6 |
| 20260510131024 | 72 | 178 | 0.0 | 0.0 | 0.00 | 0.19 | 0.00 | 95 | 1016.6 |
| 20260510130523 | 72 | 178 | 0.0 | 0.0 | 0.00 | 0.19 | 0.00 | 95 | 1016.5 |
| 20260510130022 | 72 | 178 | 0.0 | 0.0 | 0.00 | 0.19 | 0.00 | 95 | 1016.4 |
| 20260510125521 | 72 | 178 | 0.0 | 0.0 | 0.00 | 0.19 | 0.00 | 95 | 1016.2 |
| 20260510125018 | 72 | 178 | 0.0 | 0.0 | 0.00 | 0.19 | 0.00 | 95 | 1016.3 |
| 20260510124517 | 72 | 178 | 0.0 | 0.0 | 0.00 | 0.19 | 0.00 | 95 | 1016.2 |
| 20260510124016 | 71 | 178 | 0.0 | 0.0 | 0.00 | 0.19 | 0.00 | 95 | 1016.1 |
| 20260510123517 | 71 | 178 | 0.0 | 0.0 | 0.00 | 0.19 | 0.00 | 95 | 1016.0 |
| 20260510123025 | 71 | 178 | 0.0 | 0.0 | 0.00 | 0.19 | 0.00 | 95 | 1015.9 |
| 20260510122512 | 71 | 178 | 0.0 | 0.0 | 0.00 | 0.19 | 0.00 | 94 | 1015.9 |
| 20260510122017 | 71 | 178 | 0.0 | 0.0 | 0.00 | 0.19 | 0.00 | 94 | 1015.8 |
| 20260510121512 | 71 | 178 | 0.0 | 0.0 | 0.00 | 0.19 | 0.00 | 95 | 1015.8 |
| 20260510121012 | 70 | 178 | 0.0 | 0.0 | 0.00 | 0.19 | 0.00 | 95 | 1015.6 |
| 20260510120511 | 70 | 178 | 0.0 | 0.0 | 0.00 | 0.19 | 0.00 | 95 | 1015.6 |
| 20260510120011 | 70 | 178 | 0.0 | 0.0 | 0.00 | 0.19 | 0.00 | 94 | 1015.6 |
| 20260510115511 | 70 | 178 | 0.0 | 0.0 | 0.00 | 0.19 | 0.00 | 94 | 1015.6 |
| 20260510115012 | 70 | 178 | 0.0 | 0.0 | 0.00 | 0.19 | 0.00 | 94 | 1015.4 |
| 20260510114511 | 70 | 178 | 0.0 | 0.0 | 0.00 | 0.19 | 0.00 | 94 | 1015.5 |
| 20260510114009 | 70 | 178 | 0.0 | 0.0 | 0.00 | 0.19 | 0.00 | 94 | 1015.4 |
| 20260510113510 | 70 | 178 | 0.0 | 0.0 | 0.00 | 0.19 | 0.00 | 94 | 1015.4 |
| 20260510113016 | 70 | 178 | 0.0 | 0.0 | 0.00 | 0.19 | 0.00 | 94 | 1015.3 |
| 20260510112508 | 70 | 178 | 0.0 | 0.0 | 0.00 | 0.19 | 0.00 | 94 | 1015.3 |
| 20260510112007 | 69 | 178 | 0.0 | 0.0 | 0.00 | 0.19 | 0.00 | 94 | 1015.3 |
| 20260510111507 | 69 | 178 | 0.0 | 0.0 | 0.00 | 0.19 | 0.00 | 94 | 1015.1 |
| 20260510111006 | 69 | 178 | 0.0 | 0.0 | 0.00 | 0.19 | 0.00 | 94 | 1015.0 |
| 20260510110509 | 69 | 178 | 0.0 | 0.0 | 0.00 | 0.19 | 0.00 | 94 | 1015.0 |
| 20260510110016 | 69 | 178 | 0.0 | 0.0 | 0.00 | 0.19 | 0.00 | 94 | 1015.0 |
| 20260510105508 | 69 | 178 | 0.0 | 0.0 | 0.00 | 0.19 | 0.00 | 94 | 1014.8 |
| 20260510105008 | 69 | 178 | 0.0 | 0.0 | 0.00 | 0.19 | 0.00 | 94 | 1014.7 |
| 20260510104505 | 69 | 178 | 0.0 | 0.0 | 0.00 | 0.19 | 0.00 | 94 | 1014.6 |
| 20260510104004 | 69 | 178 | 0.0 | 0.0 | 0.00 | 0.19 | 0.00 | 94 | 1014.6 |
| 20260510103506 | 69 | 178 | 0.0 | 0.0 | 0.00 | 0.19 | 0.00 | 94 | 1014.7 |
| 20260510103005 | 69 | 178 | 0.0 | 0.0 | 0.00 | 0.19 | 0.00 | 94 | 1014.6 |
| 20260510102506 | 69 | 178 | 0.0 | 0.0 | 0.00 | 0.19 | 0.00 | 94 | 1014.5 |
| 20260510102005 | 69 | 178 | 0.0 | 0.0 | 0.00 | 0.19 | 0.00 | 94 | 1014.5 |
| 20260510101504 | 69 | 178 | 0.0 | 0.0 | 0.00 | 0.19 | 0.00 | 94 | 1014.4 |
| 20260510101003 | 69 | 178 | 0.0 | 0.0 | 0.00 | 0.19 | 0.00 | 94 | 1014.4 |
| 20260510100503 | 69 | 178 | 0.0 | 0.0 | 0.00 | 0.19 | 0.00 | 94 | 1014.3 |
| 20260510100005 | 69 | 178 | 0.0 | 0.0 | 0.00 | 0.19 | 0.00 | 94 | 1014.4 |
| 20260510095503 | 69 | 178 | 0.0 | 0.0 | 0.00 | 0.19 | 0.00 | 94 | 1014.4 |
| 20260510095002 | 69 | 178 | 0.0 | 0.0 | 0.00 | 0.19 | 0.00 | 94 | 1014.2 |
| 20260510094504 | 69 | 178 | 0.0 | 0.0 | 0.00 | 0.19 | 0.00 | 94 | 1014.1 |
| 20260510094002 | 69 | 178 | 0.0 | 0.0 | 0.00 | 0.19 | 0.00 | 94 | 1014.2 |
| 20260510093502 | 69 | 178 | 0.0 | 0.0 | 0.00 | 0.19 | 0.00 | 94 | 1014.2 |
| 20260510093001 | 70 | 178 | 0.0 | 0.0 | 0.00 | 0.19 | 0.00 | 94 | 1014.1 |
| 20260510092502 | 70 | 178 | 0.0 | 0.0 | 0.00 | 0.19 | 0.00 | 94 | 1013.9 |
| 20260510092001 | 70 | 178 | 0.0 | 0.0 | 0.00 | 0.19 | 0.00 | 94 | 1013.9 |
| 20260510091500 | 70 | 178 | 0.0 | 0.0 | 0.00 | 0.19 | 0.00 | 94 | 1013.8 |
| 20260510091100 | 70 | 178 | 0.0 | 0.0 | 0.00 | 0.19 | 0.00 | 94 | 1013.7 |
| 20260510090605 | 70 | 178 | 0.0 | 0.0 | 0.00 | 0.19 | 0.00 | 94 | 1013.7 |
| 20260510090101 | 70 | 178 | 0.0 | 0.0 | 0.00 | 0.19 | 0.00 | 94 | 1013.6 |
| 20260510085600 | 70 | 178 | 0.0 | 0.0 | 0.00 | 0.19 | 0.00 | 94 | 1013.5 |
| 20260510085059 | 70 | 178 | 0.0 | 0.0 | 0.00 | 0.19 | 0.00 | 94 | 1013.5 |
| 20260510084602 | 70 | 178 | 0.0 | 0.0 | 0.00 | 0.19 | 0.00 | 94 | 1013.4 |
| 20260510084059 | 70 | 178 | 0.0 | 0.0 | 0.00 | 0.19 | 0.00 | 94 | 1013.3 |
| 20260510083558 | 70 | 178 | 0.0 | 0.0 | 0.00 | 0.19 | 0.00 | 94 | 1013.4 |
| 20260510083100 | 70 | 178 | 0.0 | 0.0 | 0.00 | 0.19 | 0.00 | 94 | 1013.4 |
| 20260510082604 | 70 | 178 | 0.0 | 0.0 | 0.00 | 0.19 | 0.00 | 94 | 1013.3 |
| 20260510082058 | 71 | 178 | 0.0 | 0.0 | 0.00 | 0.19 | 0.00 | 94 | 1013.2 |
| 20260510081558 | 70 | 178 | 0.0 | 0.0 | 0.00 | 0.19 | 0.00 | 94 | 1013.3 |
| 20260510081101 | 70 | 178 | 0.0 | 0.0 | 0.00 | 0.19 | 0.00 | 94 | 1013.2 |
| 20260510080558 | 70 | 178 | 0.0 | 0.0 | 0.00 | 0.19 | 0.00 | 94 | 1013.2 |
| 20260510075557 | 70 | 178 | 0.0 | 0.0 | 0.00 | 0.19 | 0.00 | 94 | 1013.4 |
| 20260510075057 | 70 | 178 | 0.0 | 0.0 | 0.00 | 0.19 | 0.00 | 94 | 1013.4 |
| 20260510074557 | 70 | 178 | 0.0 | 0.0 | 0.00 | 0.19 | 0.00 | 94 | 1013.4 |
| 20260510074057 | 70 | 178 | 0.0 | 0.0 | 0.00 | 0.19 | 0.00 | 94 | 1013.4 |
| 20260510073556 | 70 | 178 | 0.0 | 0.0 | 0.00 | 0.19 | 0.00 | 94 | 1013.3 |
| 20260510073056 | 70 | 178 | 0.0 | 0.0 | 0.00 | 0.19 | 0.00 | 94 | 1013.3 |
| 20260510072656 | 70 | 178 | 0.0 | 0.0 | 0.00 | 0.19 | 0.00 | 94 | 1013.4 |
| 20260510072055 | 70 | 178 | 0.0 | 0.0 | 0.00 | 0.19 | 0.00 | 94 | 1013.4 |
| 20260510071557 | 70 | 178 | 0.0 | 0.0 | 0.00 | 0.19 | 0.00 | 94 | 1013.4 |
| 20260510071055 | 71 | 178 | 0.0 | 0.0 | 0.00 | 0.19 | 0.00 | 94 | 1013.2 |
| 20260510070555 | 71 | 178 | 0.0 | 0.0 | 0.00 | 0.19 | 0.00 | 94 | 1013.1 |
| 20260510070055 | 71 | 178 | 0.0 | 0.0 | 0.00 | 0.19 | 0.00 | 94 | 1013.1 |
| 20260510065557 | 71 | 178 | 0.0 | 0.0 | 0.00 | 0.19 | 0.00 | 94 | 1013.1 |
| 20260510065054 | 71 | 178 | 0.0 | 0.0 | 0.00 | 0.19 | 0.00 | 94 | 1013.2 |
| 20260510064553 | 71 | 178 | 0.0 | 0.0 | 0.00 | 0.19 | 0.00 | 94 | 1013.2 |
| 20260510064052 | 71 | 178 | 0.0 | 0.0 | 0.00 | 0.19 | 0.00 | 94 | 1013.3 |
| 20260510063555 | 71 | 178 | 0.0 | 0.0 | 0.00 | 0.19 | 0.00 | 94 | 1013.3 |
| 20260510063052 | 71 | 179 | 0.0 | 0.0 | 0.00 | 0.19 | 0.00 | 94 | 1013.3 |
| 20260510062551 | 71 | 179 | 0.0 | 0.0 | 0.00 | 0.19 | 0.00 | 94 | 1013.4 |
| 20260510062051 | 71 | 179 | 0.0 | 0.0 | 0.00 | 0.19 | 0.00 | 94 | 1013.4 |
| 20260510061553 | 71 | 179 | 0.0 | 0.0 | 0.00 | 0.19 | 0.00 | 94 | 1013.4 |
| 20260510061051 | 71 | 179 | 0.0 | 0.0 | 0.00 | 0.19 | 0.00 | 94 | 1013.4 |
| 20260510060551 | 71 | 179 | 0.0 | 0.0 | 0.00 | 0.19 | 0.00 | 94 | 1013.5 |
| 20260510060052 | 71 | 179 | 0.0 | 0.0 | 0.00 | 0.19 | 0.00 | 94 | 1013.5 |
| 20260510055549 | 71 | 179 | 0.0 | 0.0 | 0.00 | 0.19 | 0.00 | 94 | 1013.6 |
| 20260510055049 | 71 | 179 | 0.0 | 0.0 | 0.00 | 0.19 | 0.00 | 94 | 1013.7 |
| 20260510054549 | 71 | 179 | 0.0 | 0.0 | 0.00 | 0.19 | 0.00 | 94 | 1013.8 |
| 20260510054048 | 71 | 180 | 0.0 | 0.0 | 0.00 | 0.19 | 0.00 | 94 | 1013.9 |
| 20260510053547 | 71 | 180 | 0.0 | 0.0 | 0.00 | 0.19 | 0.00 | 94 | 1013.9 |
| 20260510053058 | 71 | 180 | 0.0 | 0.0 | 0.00 | 0.19 | 0.00 | 94 | 1014.1 |
| 20260510052546 | 71 | 173 | 0.0 | 0.0 | 0.00 | 0.19 | 0.00 | 94 | 1014.1 |
| 20260510052045 | 71 | 174 | 0.0 | 1.0 | 0.00 | 0.19 | 0.00 | 94 | 1014.2 |
| 20260510051549 | 71 | 174 | 0.0 | 2.0 | 0.00 | 0.19 | 0.00 | 94 | 1014.4 |
| 20260510051044 | 71 | 174 | 0.0 | 2.0 | 0.00 | 0.19 | 0.00 | 94 | 1014.4 |
| 20260510050544 | 71 | 150 | 0.0 | 2.0 | 0.00 | 0.19 | 0.00 | 94 | 1014.4 |
| 20260510050043 | 71 | 209 | 0.0 | 2.0 | 0.00 | 0.19 | 0.00 | 94 | 1014.6 |
| 20260510045541 | 70 | 209 | 0.0 | 3.0 | 0.00 | 0.19 | 0.00 | 94 | 1014.6 |
| 20260510045039 | 70 | 209 | 0.0 | 3.0 | 0.00 | 0.19 | 0.00 | 94 | 1014.8 |
| 20260510044538 | 70 | 196 | 0.0 | 3.0 | 0.00 | 0.19 | 0.00 | 94 | 1014.8 |
| 20260510044038 | 70 | 163 | 0.0 | 0.0 | 0.00 | 0.19 | 0.00 | 94 | 1014.7 |
| 20260510043538 | 70 | 146 | 0.0 | 0.0 | 0.00 | 0.19 | 0.00 | 93 | 1014.8 |
| 20260510043045 | 70 | 146 | 0.0 | 0.0 | 0.00 | 0.19 | 0.00 | 93 | 1014.8 |
| 20260510042537 | 70 | 146 | 0.0 | 0.0 | 0.00 | 0.19 | 0.00 | 93 | 1014.8 |
| 20260510042039 | 70 | 146 | 0.0 | 0.0 | 0.00 | 0.19 | 0.00 | 93 | 1014.8 |
| 20260510041536 | 70 | 146 | 0.0 | 0.0 | 0.00 | 0.19 | 0.00 | 93 | 1014.6 |
| 20260510041037 | 70 | 146 | 0.0 | 0.0 | 0.00 | 0.19 | 0.00 | 93 | 1014.7 |
| 20260510040536 | 70 | 146 | 0.0 | 0.0 | 0.00 | 0.19 | 0.00 | 93 | 1014.8 |
| 20260510040040 | 70 | 146 | 0.0 | 0.0 | 0.00 | 0.19 | 0.00 | 93 | 1014.7 |
| 20260510035534 | 70 | 146 | 0.0 | 0.0 | 0.00 | 0.19 | 0.19 | 93 | 1014.7 |
| 20260510035033 | 70 | 146 | 0.0 | 0.0 | 0.00 | 0.19 | 0.19 | 93 | 1014.7 |
| 20260510034533 | 70 | 146 | 0.0 | 0.0 | 0.00 | 0.19 | 0.19 | 93 | 1014.6 |
| 20260510034033 | 70 | 146 | 0.0 | 0.0 | 0.00 | 0.19 | 0.19 | 93 | 1014.6 |
| 20260510033533 | 70 | 146 | 0.0 | 0.0 | 0.00 | 0.19 | 0.19 | 93 | 1014.5 |
| 20260510033033 | 70 | 146 | 0.0 | 0.0 | 0.00 | 0.19 | 0.19 | 93 | 1014.8 |
| 20260510032533 | 70 | 146 | 0.0 | 0.0 | 0.00 | 0.19 | 0.19 | 93 | 1014.8 |
| 20260510032033 | 70 | 146 | 0.0 | 0.0 | 0.00 | 0.19 | 0.19 | 93 | 1014.9 |
| 20260510031534 | 70 | 146 | 0.0 | 0.0 | 0.00 | 0.19 | 0.19 | 93 | 1014.9 |
| 20260510031033 | 70 | 146 | 0.0 | 0.0 | 0.00 | 0.19 | 0.19 | 93 | 1014.9 |
| 20260510030532 | 70 | 146 | 0.0 | 0.0 | 0.00 | 0.19 | 0.19 | 93 | 1014.7 |
| 20260510030032 | 70 | 146 | 0.0 | 0.0 | 0.00 | 0.19 | 0.19 | 93 | 1014.6 |
| 20260510025532 | 70 | 146 | 0.0 | 0.0 | 0.00 | 0.19 | 0.19 | 93 | 1014.7 |
| 20260510025032 | 70 | 145 | 0.0 | 0.0 | 0.00 | 0.19 | 0.19 | 93 | 1014.6 |
| 20260510024531 | 70 | 145 | 0.0 | 0.0 | 0.00 | 0.19 | 0.19 | 93 | 1014.4 |
| 20260510024031 | 70 | 145 | 0.0 | 0.0 | 0.00 | 0.19 | 0.19 | 93 | 1014.5 |
| 20260510023531 | 70 | 145 | 0.0 | 0.0 | 0.00 | 0.19 | 0.19 | 93 | 1014.4 |
| 20260510023031 | 70 | 145 | 0.0 | 0.0 | 0.00 | 0.19 | 0.19 | 93 | 1014.3 |
| 20260510022633 | 70 | 145 | 0.0 | 0.0 | 0.00 | 0.19 | 0.19 | 93 | 1014.1 |
| 20260510022030 | 70 | 145 | 0.0 | 0.0 | 0.00 | 0.19 | 0.19 | 93 | 1014.0 |
| 20260510021539 | 70 | 145 | 0.0 | 0.0 | 0.00 | 0.19 | 0.19 | 93 | 1013.8 |
| 20260510021030 | 70 | 145 | 0.0 | 0.0 | 0.00 | 0.19 | 0.19 | 93 | 1013.8 |
| 20260510020534 | 70 | 145 | 0.0 | 0.0 | 0.00 | 0.19 | 0.19 | 93 | 1013.7 |
| 20260510020030 | 70 | 145 | 0.0 | 0.0 | 0.00 | 0.19 | 0.19 | 93 | 1013.6 |
| 20260510015534 | 70 | 145 | 0.0 | 0.0 | 0.00 | 0.19 | 0.19 | 93 | 1013.7 |
| 20260510015029 | 70 | 145 | 0.0 | 0.0 | 0.00 | 0.19 | 0.19 | 93 | 1013.7 |
| 20260510014533 | 70 | 145 | 0.0 | 0.0 | 0.00 | 0.19 | 0.19 | 93 | 1013.7 |
| 20260510014029 | 70 | 145 | 0.0 | 0.0 | 0.00 | 0.19 | 0.19 | 93 | 1013.5 |
| 20260510013529 | 70 | 145 | 0.0 | 0.0 | 0.00 | 0.19 | 0.19 | 93 | 1013.5 |
| 20260510013030 | 70 | 145 | 0.0 | 0.0 | 0.00 | 0.19 | 0.19 | 93 | 1013.2 |
| 20260510012531 | 70 | 145 | 0.0 | 0.0 | 0.00 | 0.19 | 0.19 | 93 | 1013.3 |
| 20260510012029 | 70 | 145 | 0.0 | 0.0 | 0.00 | 0.19 | 0.19 | 93 | 1013.3 |
| 20260510011539 | 71 | 145 | 0.0 | 0.0 | 0.00 | 0.19 | 0.19 | 92 | 1013.1 |
| 20260510011028 | 71 | 145 | 0.0 | 0.0 | 0.00 | 0.19 | 0.19 | 92 | 1013.2 |
| 20260510010528 | 71 | 145 | 0.0 | 0.0 | 0.00 | 0.19 | 0.19 | 92 | 1013.0 |
| 20260510010029 | 71 | 145 | 0.0 | 0.0 | 0.00 | 0.19 | 0.19 | 92 | 1013.0 |
| 20260510005529 | 71 | 145 | 0.0 | 0.0 | 0.00 | 0.19 | 0.19 | 92 | 1013.1 |
| 20260510005028 | 71 | 145 | 0.0 | 0.0 | 0.01 | 0.19 | 0.19 | 92 | 1013.2 |
| 20260510004531 | 71 | 145 | 0.0 | 0.0 | 0.01 | 0.19 | 0.19 | 92 | 1013.3 |
| 20260510004030 | 71 | 145 | 0.0 | 1.0 | 0.01 | 0.19 | 0.19 | 92 | 1013.3 |
| 20260510003527 | 71 | 145 | 0.0 | 1.0 | 0.01 | 0.19 | 0.19 | 92 | 1013.5 |
| 20260510003028 | 71 | 80 | 0.0 | 0.0 | 0.01 | 0.19 | 0.19 | 92 | 1013.4 |
| 20260510002529 | 71 | 80 | 0.0 | 0.0 | 0.01 | 0.19 | 0.19 | 92 | 1012.9 |
| 20260510002027 | 71 | 80 | 0.0 | 0.0 | 0.01 | 0.19 | 0.19 | 92 | 1013.3 |
| 20260510001527 | 71 | 80 | 0.0 | 0.0 | 0.01 | 0.19 | 0.19 | 92 | 1013.5 |
| 20260510001027 | 71 | 81 | 0.0 | 0.0 | 0.01 | 0.19 | 0.19 | 92 | 1013.4 |
| 20260510000527 | 71 | 80 | 0.0 | 0.0 | 0.01 | 0.19 | 0.19 | 92 | 1013.6 |
| 20260510000034 | 71 | 81 | 0.0 | 0.0 | 0.01 | 0.19 | 0.19 | 92 | 1013.9 |
| 20260509235526 | 71 | 81 | 0.0 | 0.0 | 0.01 | 0.19 | 0.19 | 92 | 1013.8 |
| 20260509235025 | 71 | 81 | 0.0 | 0.0 | 0.00 | 0.18 | 0.18 | 92 | 1014.0 |
| 20260509234525 | 71 | 81 | 0.0 | 0.0 | 0.00 | 0.18 | 0.18 | 91 | 1014.1 |
| 20260509234030 | 71 | 81 | 0.0 | 0.0 | 0.00 | 0.18 | 0.18 | 91 | 1014.2 |
| 20260509233526 | 72 | 81 | 0.0 | 0.0 | 0.00 | 0.18 | 0.18 | 91 | 1014.1 |
| 20260509233025 | 72 | 81 | 0.0 | 0.0 | 0.00 | 0.18 | 0.18 | 91 | 1014.0 |
| 20260509232525 | 72 | 81 | 0.0 | 0.0 | 0.00 | 0.18 | 0.18 | 91 | 1014.0 |
| 20260509232025 | 72 | 81 | 0.0 | 0.0 | 0.00 | 0.18 | 0.18 | 91 | 1014.0 |
| 20260509231525 | 72 | 81 | 0.0 | 0.0 | 0.00 | 0.18 | 0.18 | 91 | 1013.9 |
| 20260509231024 | 72 | 80 | 0.0 | 0.0 | 0.00 | 0.18 | 0.18 | 91 | 1013.9 |
| 20260509230524 | 72 | 80 | 0.0 | 0.0 | 0.00 | 0.18 | 0.18 | 91 | 1013.9 |
| 20260509230024 | 72 | 80 | 0.0 | 0.0 | 0.00 | 0.18 | 0.18 | 91 | 1013.8 |
| 20260509225524 | 72 | 80 | 0.0 | 0.0 | 0.00 | 0.27 | 0.18 | 91 | 1013.9 |
| 20260509225023 | 72 | 80 | 0.0 | 0.0 | 0.00 | 0.27 | 0.18 | 91 | 1013.7 |
| 20260509224522 | 73 | 80 | 0.0 | 0.0 | 0.00 | 0.27 | 0.18 | 91 | 1013.6 |
| 20260509224023 | 73 | 80 | 0.0 | 0.0 | 0.00 | 0.27 | 0.18 | 91 | 1013.6 |
| 20260509223524 | 73 | 80 | 0.0 | 0.0 | 0.00 | 0.27 | 0.18 | 91 | 1013.7 |
| 20260509223022 | 73 | 80 | 0.0 | 0.0 | 0.00 | 0.27 | 0.18 | 91 | 1013.7 |
| 20260509222522 | 73 | 80 | 0.0 | 0.0 | 0.00 | 0.27 | 0.18 | 91 | 1013.7 |
| 20260509222022 | 73 | 80 | 0.0 | 0.0 | 0.00 | 0.27 | 0.18 | 91 | 1013.6 |
| 20260509221523 | 73 | 80 | 0.0 | 0.0 | 0.00 | 0.27 | 0.18 | 91 | 1013.5 |
| 20260509221022 | 73 | 80 | 0.0 | 0.0 | 0.00 | 0.27 | 0.18 | 91 | 1013.7 |
| 20260509220522 | 73 | 80 | 0.0 | 0.0 | 0.00 | 0.27 | 0.18 | 91 | 1013.6 |
| 20260509220023 | 73 | 80 | 0.0 | 0.0 | 0.00 | 0.27 | 0.18 | 91 | 1013.6 |
| 20260509215521 | 73 | 80 | 0.0 | 0.0 | 0.00 | 0.27 | 0.18 | 91 | 1013.4 |
| 20260509215021 | 73 | 80 | 0.0 | 0.0 | 0.00 | 0.27 | 0.18 | 91 | 1013.4 |
| 20260509214521 | 73 | 80 | 0.0 | 0.0 | 0.00 | 0.27 | 0.18 | 90 | 1013.5 |
| 20260509214020 | 73 | 80 | 0.0 | 0.0 | 0.00 | 0.27 | 0.18 | 90 | 1013.4 |
| 20260509213520 | 73 | 360 | 0.0 | 0.0 | 0.00 | 0.27 | 0.18 | 90 | 1013.3 |
| 20260509213027 | 73 | 80 | 0.0 | 1.0 | 0.00 | 0.27 | 0.18 | 90 | 1013.0 |
| 20260509212521 | 73 | 80 | 0.0 | 0.0 | 0.00 | 0.27 | 0.18 | 90 | 1013.2 |
| 20260509212020 | 73 | 81 | 0.0 | 1.0 | 0.00 | 0.27 | 0.18 | 90 | 1013.2 |
| 20260509211520 | 74 | 82 | 0.0 | 1.0 | 0.00 | 0.27 | 0.18 | 90 | 1013.0 |
| 20260509211020 | 74 | 82 | 0.0 | 2.0 | 0.00 | 0.27 | 0.18 | 90 | 1013.1 |
| 20260509210520 | 74 | 81 | 0.0 | 2.0 | 0.00 | 0.27 | 0.18 | 90 | 1013.1 |
| 20260509210020 | 74 | 294 | 0.0 | 0.0 | 0.00 | 0.27 | 0.18 | 90 | 1013.1 |
| 20260509205519 | 74 | 293 | 0.0 | 2.0 | 0.00 | 0.27 | 0.18 | 90 | 1013.2 |
| 20260509205018 | 74 | 360 | 0.0 | 1.0 | 0.00 | 0.27 | 0.18 | 90 | 1013.1 |
| 20260509204519 | 74 | 360 | 0.0 | 1.0 | 0.00 | 0.27 | 0.18 | 90 | 1012.9 |
| 20260509204018 | 75 | 269 | 0.0 | 1.0 | 0.00 | 0.27 | 0.18 | 91 | 1012.9 |
| 20260509203517 | 74 | 360 | 0.0 | 3.0 | 0.00 | 0.27 | 0.18 | 90 | 1013.0 |
| 20260509203018 | 75 | 360 | 0.0 | 3.0 | 0.01 | 0.27 | 0.18 | 90 | 1013.1 |
| 20260509202517 | 75 | 257 | 0.0 | 0.0 | 0.01 | 0.27 | 0.18 | 90 | 1013.0 |
| 20260509202017 | 75 | 360 | 0.0 | 2.0 | 0.07 | 0.27 | 0.18 | 91 | 1013.1 |
| 20260509201517 | 75 | 360 | 0.0 | 3.0 | 0.12 | 0.27 | 0.18 | 91 | 1013.1 |
| 20260509201016 | 75 | 360 | 0.0 | 3.0 | 0.12 | 0.27 | 0.18 | 91 | 1012.9 |
| 20260509200519 | 75 | 360 | 0.0 | 3.0 | 0.12 | 0.27 | 0.18 | 90 | 1012.9 |
| 20260509200016 | 75 | 360 | 0.0 | 2.0 | 0.12 | 0.27 | 0.18 | 90 | 1012.9 |
| 20260509195516 | 74 | 360 | 0.0 | 0.0 | 0.12 | 0.27 | 0.18 | 90 | 1013.0 |
| 20260509195015 | 74 | 360 | 0.0 | 0.0 | 0.12 | 0.27 | 0.18 | 90 | 1012.8 |
| 20260509194515 | 74 | 160 | 0.0 | 0.0 | 0.12 | 0.27 | 0.18 | 90 | 1012.9 |
| 20260509194019 | 74 | 160 | 0.0 | 0.0 | 0.13 | 0.27 | 0.18 | 90 | 1012.9 |
| 20260509193515 | 74 | 160 | 0.0 | 4.0 | 0.14 | 0.27 | 0.18 | 89 | 1012.9 |
| 20260509193024 | 75 | 360 | 0.0 | 4.0 | 0.15 | 0.26 | 0.17 | 88 | 1013.0 |
| 20260509192514 | 75 | 360 | 0.0 | 5.0 | 0.15 | 0.25 | 0.16 | 87 | 1013.1 |
| 20260509192014 | 77 | 281 | 2.0 | 5.0 | 0.08 | 0.18 | 0.09 | 88 | 1013.4 |
| 20260509191516 | 77 | 246 | 0.0 | 0.0 | 0.05 | 0.15 | 0.06 | 89 | 1013.2 |
| 20260509191014 | 78 | 236 | 0.0 | 2.0 | 0.06 | 0.15 | 0.06 | 89 | 1013.1 |
| 20260509190517 | 78 | 200 | 0.0 | 0.0 | 0.06 | 0.15 | 0.06 | 89 | 1013.1 |
| 20260509190015 | 78 | 200 | 0.0 | 0.0 | 0.06 | 0.15 | 0.06 | 89 | 1012.9 |
| 20260509185513 | 78 | 200 | 0.0 | 0.0 | 0.06 | 0.15 | 0.06 | 88 | 1012.9 |
| 20260509185013 | 78 | 200 | 0.0 | 0.0 | 0.06 | 0.15 | 0.06 | 88 | 1013.0 |
| 20260509184528 | 78 | 200 | 0.0 | 0.0 | 0.06 | 0.15 | 0.06 | 87 | 1013.1 |
| 20260509184015 | 79 | 200 | 0.0 | 0.0 | 0.05 | 0.14 | 0.05 | 87 | 1012.9 |
| 20260509183512 | 79 | 200 | 0.0 | 0.0 | 0.03 | 0.12 | 0.03 | 87 | 1013.1 |
| 20260509183011 | 79 | 200 | 0.0 | 0.0 | 0.02 | 0.11 | 0.02 | 86 | 1013.1 |
| 20260509182511 | 80 | 200 | 0.0 | 1.0 | 0.01 | 0.10 | 0.01 | 85 | 1013.1 |
| 20260509182011 | 80 | 200 | 0.0 | 2.0 | 0.01 | 0.10 | 0.01 | 84 | 1013.2 |
| 20260509181510 | 80 | 200 | 0.0 | 2.0 | 0.00 | 0.09 | 0.00 | 83 | 1013.1 |
| 20260509181011 | 80 | 199 | 0.0 | 4.0 | 0.00 | 0.09 | 0.00 | 81 | 1013.1 |
| 20260509180509 | 80 | 211 | 2.0 | 4.0 | 0.00 | 0.09 | 0.00 | 80 | 1013.4 |
| 20260509180013 | 81 | 212 | 0.0 | 2.0 | 0.00 | 0.09 | 0.00 | 80 | 1013.2 |
| 20260509175513 | 81 | 231 | 0.0 | 0.0 | 0.00 | 0.09 | 0.00 | 80 | 1013.2 |
| 20260509175009 | 81 | 177 | 0.0 | 2.0 | 0.00 | 0.09 | 0.00 | 80 | 1013.4 |
| 20260509174515 | 81 | 175 | 0.0 | 2.0 | 0.00 | 0.09 | 0.00 | 80 | 1013.3 |